| time (UTC) | temp C | wind direction | speed KPH | gust KPH | rain 1hr cm | rain 24hr cm | rain mn cm | humidity % | barometer mb |
| 20260903135600 | 28 | 300 | 3.2 | 9.7 | 0.00 | 0.00 | 0.00 | 83 | 1014.3 |
| 20260903134830 | 28 | 109 | 4.8 | 11.3 | 0.00 | 0.00 | 0.00 | 83 | 1014.5 |
| 20260903134612 | 28 | 22 | 1.6 | 12.9 | 0.00 | 0.00 | 0.00 | 83 | 1014.5 |
| 20260903134556 | 28 | 230 | 3.2 | 12.9 | 0.00 | 0.00 | 0.00 | 84 | 1014.4 |
| 20260903133830 | 28 | 306 | 4.8 | 12.9 | 0.00 | 0.00 | 0.00 | 84 | 1014.3 |
| 20260903133330 | 28 | 101 | 3.2 | 8.0 | 0.00 | 0.00 | 0.00 | 84 | 1014.3 |
| 20260903133101 | 28 | 242 | 3.2 | 9.7 | 0.00 | 0.00 | 0.00 | 84 | 1014.4 |
| 20260903132829 | 28 | 247 | 1.6 | 9.7 | 0.00 | 0.00 | 0.00 | 85 | 1014.2 |
| 20260903132606 | 28 | 159 | 1.6 | 9.7 | 0.00 | 0.00 | 0.00 | 85 | 1014.3 |
| 20260903131829 | 28 | 189 | 3.2 | 9.7 | 0.00 | 0.00 | 0.00 | 85 | 1014.2 |
| 20260903131557 | 27 | 245 | 3.2 | 11.3 | 0.00 | 0.00 | 0.00 | 85 | 1014.3 |
| 20260903131329 | 28 | 150 | 4.8 | 9.7 | 0.00 | 0.00 | 0.00 | 85 | 1014.1 |
| 20260903130828 | 27 | 270 | 3.2 | 9.7 | 0.00 | 0.00 | 0.00 | 86 | 1014.0 |
| 20260903130328 | 27 | 152 | 3.2 | 8.0 | 0.00 | 0.00 | 0.00 | 86 | 1014.1 |
| 20260903130109 | 27 | 80 | 1.6 | 6.4 | 0.00 | 0.00 | 0.00 | 86 | 1014.4 |
| 20260903125830 | 27 | 217 | 1.6 | 6.4 | 0.00 | 0.00 | 0.00 | 86 | 1014.1 |
| 20260903125554 | 27 | 6 | 1.6 | 9.7 | 0.00 | 0.00 | 0.00 | 86 | 1014.1 |
| 20260903124829 | 27 | 341 | 3.2 | 9.7 | 0.00 | 0.00 | 0.00 | 86 | 1014.1 |
| 20260903124610 | 27 | 182 | 0.0 | 12.9 | 0.00 | 0.00 | 0.00 | 86 | 1014.2 |
| 20260903124552 | 27 | 271 | 1.6 | 9.7 | 0.00 | 0.00 | 0.00 | 86 | 1014.0 |
| 20260903124052 | 27 | 245 | 1.6 | 6.4 | 0.00 | 0.00 | 0.00 | 86 | 1013.9 |
| 20260903123329 | 27 | 354 | 1.6 | 8.0 | 0.00 | 0.00 | 0.00 | 86 | 1013.9 |
| 20260903123112 | 27 | 288 | 0.0 | 8.0 | 0.00 | 0.00 | 0.00 | 86 | 1014.2 |
| 20260903122830 | 27 | 122 | 1.6 | 8.0 | 0.00 | 0.00 | 0.00 | 86 | 1014.0 |
| 20260903122330 | 27 | 226 | 3.2 | 9.7 | 0.00 | 0.00 | 0.00 | 86 | 1013.9 |
| 20260903121829 | 27 | 324 | 3.2 | 9.7 | 0.00 | 0.00 | 0.00 | 86 | 1013.8 |
| 20260903121557 | 27 | 304 | 3.2 | 9.7 | 0.00 | 0.00 | 0.00 | 86 | 1014.1 |
| 20260903121329 | 27 | 157 | 3.2 | 9.7 | 0.00 | 0.00 | 0.00 | 86 | 1013.9 |
| 20260903120828 | 27 | 239 | 1.6 | 8.0 | 0.00 | 0.00 | 0.00 | 86 | 1014.0 |
| 20260903120329 | 27 | 65 | 3.2 | 8.0 | 0.00 | 0.00 | 0.00 | 86 | 1013.9 |
| 20260903120117 | 27 | 211 | 1.6 | 4.8 | 0.00 | 0.00 | 0.00 | 86 | 1014.1 |
| 20260903120106 | 27 | 193 | 0.0 | 4.8 | 0.00 | 0.00 | 0.00 | 86 | 1014.0 |
| 20260903115330 | 27 | 246 | 3.2 | 8.0 | 0.00 | 0.00 | 0.00 | 86 | 1013.9 |
| 20260903115054 | 27 | 275 | 3.2 | 9.7 | 0.00 | 0.00 | 0.00 | 86 | 1013.9 |
| 20260903114608 | 27 | 255 | 1.6 | 9.7 | 0.00 | 0.00 | 0.00 | 86 | 1014.1 |
| 20260903114330 | 27 | 316 | 3.2 | 9.7 | 0.00 | 0.00 | 0.00 | 86 | 1013.8 |
| 20260903113839 | 27 | 268 | 3.2 | 8.0 | 0.00 | 0.00 | 0.00 | 86 | 1013.7 |
| 20260903113328 | 27 | 41 | 4.8 | 8.0 | 0.00 | 0.00 | 0.00 | 86 | 1013.7 |
| 20260903113107 | 27 | 218 | 0.0 | 9.7 | 0.00 | 0.00 | 0.00 | 85 | 1013.9 |
| 20260903113054 | 27 | 107 | 1.6 | 9.7 | 0.00 | 0.00 | 0.00 | 86 | 1013.7 |
| 20260903112329 | 27 | 172 | 4.8 | 9.7 | 0.00 | 0.00 | 0.00 | 86 | 1013.9 |
| 20260903111829 | 27 | 244 | 3.2 | 8.0 | 0.00 | 0.00 | 0.00 | 86 | 1013.8 |
| 20260903111553 | 27 | 59 | 1.6 | 8.0 | 0.00 | 0.00 | 0.00 | 85 | 1014.0 |
| 20260903111329 | 27 | 180 | 3.2 | 8.0 | 0.00 | 0.00 | 0.00 | 86 | 1013.8 |
| 20260903110829 | 27 | 230 | 3.2 | 8.0 | 0.00 | 0.00 | 0.00 | 86 | 1013.8 |
| 20260903110328 | 27 | 31 | 1.6 | 8.0 | 0.00 | 0.00 | 0.00 | 85 | 1013.8 |
| 20260903110105 | 27 | 353 | 3.2 | 9.7 | 0.00 | 0.00 | 0.00 | 85 | 1014.0 |
| 20260903105836 | 27 | 203 | 3.2 | 8.0 | 0.00 | 0.00 | 0.00 | 85 | 1013.9 |
| 20260903105332 | 27 | 3 | 1.6 | 9.7 | 0.00 | 0.00 | 0.00 | 85 | 1013.7 |
| 20260903104843 | 27 | 39 | 3.2 | 9.7 | 0.00 | 0.00 | 0.00 | 85 | 1013.7 |
| 20260903104556 | 27 | 31 | 1.6 | 8.0 | 0.00 | 0.00 | 0.00 | 84 | 1013.8 |
| 20260903104332 | 28 | 323 | 1.6 | 9.7 | 0.00 | 0.00 | 0.00 | 85 | 1013.7 |
| 20260903103833 | 28 | 309 | 1.6 | 9.7 | 0.00 | 0.00 | 0.00 | 85 | 1013.7 |
| 20260903103328 | 28 | 167 | 3.2 | 11.3 | 0.00 | 0.00 | 0.00 | 85 | 1013.5 |
| 20260903103056 | 27 | 350 | 3.2 | 12.9 | 0.00 | 0.00 | 0.00 | 84 | 1013.8 |
| 20260903102829 | 28 | 101 | 3.2 | 12.9 | 0.00 | 0.00 | 0.00 | 85 | 1013.5 |
| 20260903102551 | 28 | 286 | 3.2 | 12.9 | 0.00 | 0.00 | 0.00 | 85 | 1013.6 |
| 20260903102108 | 28 | 83 | 3.2 | 12.9 | 0.00 | 0.00 | 0.00 | 84 | 1013.6 |
| 20260903101552 | 27 | 174 | 3.2 | 12.9 | 0.00 | 0.00 | 0.00 | 84 | 1013.8 |
| 20260903101329 | 28 | 50 | 3.2 | 12.9 | 0.00 | 0.00 | 0.00 | 84 | 1013.6 |
| 20260903100829 | 28 | 184 | 3.2 | 9.7 | 0.00 | 0.00 | 0.00 | 84 | 1013.6 |
| 20260903100552 | 28 | 69 | 4.8 | 9.7 | 0.00 | 0.00 | 0.00 | 84 | 1013.7 |
| 20260903100105 | 27 | 270 | 3.2 | 12.9 | 0.00 | 0.00 | 0.00 | 83 | 1013.8 |
| 20260903095830 | 28 | 354 | 3.2 | 11.3 | 0.00 | 0.00 | 0.00 | 84 | 1013.6 |
| 20260903095331 | 28 | 143 | 4.8 | 14.5 | 0.00 | 0.00 | 0.00 | 84 | 1013.7 |
| 20260903094832 | 28 | 166 | 4.8 | 14.5 | 0.00 | 0.00 | 0.00 | 84 | 1013.6 |
| 20260903094558 | 28 | 302 | 3.2 | 12.9 | 0.00 | 0.00 | 0.00 | 83 | 1013.9 |
| 20260903094330 | 28 | 288 | 6.4 | 14.5 | 0.00 | 0.00 | 0.00 | 83 | 1013.7 |
| 20260903093830 | 28 | 165 | 3.2 | 12.9 | 0.00 | 0.00 | 0.00 | 83 | 1013.8 |
| 20260903093329 | 28 | 333 | 6.4 | 14.5 | 0.00 | 0.00 | 0.00 | 83 | 1014.0 |
| 20260903093058 | 28 | 198 | 6.4 | 16.1 | 0.00 | 0.00 | 0.00 | 83 | 1014.2 |
| 20260903092829 | 28 | 4 | 4.8 | 14.5 | 0.00 | 0.00 | 0.00 | 83 | 1013.9 |
| 20260903092329 | 28 | 266 | 4.8 | 12.9 | 0.00 | 0.00 | 0.00 | 83 | 1014.1 |
| 20260903091829 | 28 | 18 | 6.4 | 16.1 | 0.00 | 0.00 | 0.00 | 83 | 1014.0 |
| 20260903091626 | 28 | 310 | 4.8 | 16.1 | 0.00 | 0.00 | 0.00 | 83 | 1014.2 |
| 20260903091329 | 28 | 183 | 3.2 | 17.7 | 0.00 | 0.00 | 0.00 | 83 | 1013.9 |
| 20260903090828 | 28 | 307 | 8.0 | 17.7 | 0.00 | 0.00 | 0.00 | 83 | 1014.0 |
| 20260903090616 | 28 | 246 | 6.4 | 19.3 | 0.00 | 0.00 | 0.00 | 83 | 1014.1 |
| 20260903085829 | 28 | 257 | 6.4 | 19.3 | 0.00 | 0.00 | 0.00 | 83 | 1014.1 |
| 20260903085329 | 28 | 149 | 6.4 | 16.1 | 0.00 | 0.00 | 0.00 | 83 | 1014.2 |
| 20260903084829 | 28 | 208 | 6.4 | 16.1 | 0.00 | 0.00 | 0.00 | 83 | 1014.0 |
| 20260903084558 | 28 | 290 | 8.0 | 16.1 | 0.00 | 0.00 | 0.00 | 82 | 1014.4 |
| 20260903084329 | 28 | 278 | 9.7 | 16.1 | 0.00 | 0.00 | 0.00 | 83 | 1014.2 |
| 20260903083829 | 28 | 53 | 4.8 | 16.1 | 0.00 | 0.00 | 0.00 | 83 | 1014.2 |
| 20260903083329 | 28 | 144 | 3.2 | 12.9 | 0.00 | 0.00 | 0.00 | 83 | 1014.3 |
| 20260903083106 | 28 | 287 | 4.8 | 11.3 | 0.00 | 0.00 | 0.00 | 82 | 1014.5 |
| 20260903082830 | 28 | 271 | 6.4 | 9.7 | 0.00 | 0.00 | 0.00 | 82 | 1014.4 |
| 20260903082330 | 28 | 274 | 4.8 | 17.7 | 0.00 | 0.00 | 0.00 | 82 | 1014.3 |
| 20260903081830 | 28 | 41 | 4.8 | 17.7 | 0.00 | 0.00 | 0.00 | 82 | 1014.2 |
| 20260903081607 | 28 | 203 | 4.8 | 16.1 | 0.00 | 0.00 | 0.00 | 82 | 1014.6 |
| 20260903081330 | 28 | 12 | 3.2 | 12.9 | 0.00 | 0.00 | 0.00 | 82 | 1014.2 |
| 20260903080828 | 28 | 348 | 6.4 | 9.7 | 0.00 | 0.00 | 0.00 | 82 | 1014.3 |
| 20260903080556 | 28 | 244 | 3.2 | 9.7 | 0.00 | 0.00 | 0.00 | 82 | 1014.3 |
| 20260903080103 | 28 | 162 | 4.8 | 14.5 | 0.00 | 0.00 | 0.00 | 82 | 1014.5 |
| 20260903075829 | 28 | 203 | 4.8 | 12.9 | 0.00 | 0.00 | 0.00 | 82 | 1014.3 |
| 20260903075329 | 28 | 354 | 3.2 | 12.9 | 0.00 | 0.00 | 0.00 | 82 | 1014.3 |
| 20260903074829 | 28 | 13 | 4.8 | 12.9 | 0.00 | 0.00 | 0.00 | 82 | 1014.3 |
| 20260903074627 | 28 | 356 | 3.2 | 19.3 | 0.00 | 0.00 | 0.00 | 82 | 1014.5 |
| 20260903074555 | 28 | 339 | 4.8 | 19.3 | 0.00 | 0.00 | 0.00 | 82 | 1014.3 |
| 20260903073828 | 28 | 126 | 4.8 | 19.3 | 0.00 | 0.00 | 0.00 | 82 | 1014.3 |
| 20260903073329 | 28 | 168 | 6.4 | 14.5 | 0.00 | 0.00 | 0.00 | 82 | 1014.3 |
| 20260903073059 | 28 | 205 | 6.4 | 12.9 | 0.00 | 0.00 | 0.00 | 81 | 1014.5 |
| 20260903072831 | 28 | 216 | 6.4 | 14.5 | 0.00 | 0.00 | 0.00 | 82 | 1014.2 |
| 20260903072330 | 28 | 228 | 6.4 | 17.7 | 0.00 | 0.00 | 0.00 | 82 | 1014.3 |
| 20260903072314 | 28 | 314 | 6.4 | 17.7 | 0.00 | 0.00 | 0.00 | 81 | 1014.2 |
| 20260903071607 | 28 | 216 | 6.4 | 19.3 | 0.00 | 0.00 | 0.00 | 81 | 1014.5 |
| 20260903071330 | 29 | 324 | 6.4 | 14.5 | 0.00 | 0.00 | 0.00 | 81 | 1014.5 |
| 20260903071323 | 29 | 29 | 6.4 | 25.7 | 0.00 | 0.00 | 0.00 | 81 | 1014.5 |
| 20260903070328 | 29 | 340 | 9.7 | 25.7 | 0.00 | 0.00 | 0.00 | 81 | 1014.5 |
| 20260903070115 | 28 | 151 | 4.8 | 16.1 | 0.00 | 0.00 | 0.00 | 80 | 1014.6 |
| 20260903065829 | 29 | 245 | 6.4 | 12.9 | 0.00 | 0.00 | 0.00 | 81 | 1014.5 |
| 20260903065329 | 29 | 262 | 6.4 | 12.9 | 0.00 | 0.00 | 0.00 | 81 | 1014.4 |
| 20260903064829 | 29 | 60 | 6.4 | 16.1 | 0.00 | 0.00 | 0.00 | 81 | 1014.6 |
| 20260903064555 | 28 | 41 | 4.8 | 16.1 | 0.00 | 0.00 | 0.00 | 81 | 1014.6 |
| 20260903064552 | 29 | 56 | 6.4 | 16.1 | 0.00 | 0.00 | 0.00 | 81 | 1014.6 |
| 20260903063829 | 29 | 268 | 8.0 | 14.5 | 0.00 | 0.00 | 0.00 | 81 | 1014.6 |
| 20260903063328 | 29 | 290 | 3.2 | 16.1 | 0.00 | 0.00 | 0.00 | 81 | 1014.5 |
| 20260903063105 | 28 | 296 | 4.8 | 25.7 | 0.00 | 0.00 | 0.00 | 81 | 1014.7 |
| 20260903063056 | 29 | 101 | 6.4 | 20.9 | 0.00 | 0.00 | 0.00 | 81 | 1014.6 |
| 20260903062556 | 29 | 288 | 6.4 | 20.9 | 0.00 | 0.00 | 0.00 | 81 | 1014.6 |
| 20260903061829 | 29 | 198 | 6.4 | 12.9 | 0.00 | 0.00 | 0.00 | 81 | 1014.5 |
| 20260903061611 | 28 | 212 | 3.2 | 14.5 | 0.00 | 0.00 | 0.00 | 81 | 1014.7 |
| 20260903061329 | 29 | 304 | 1.6 | 11.3 | 0.00 | 0.00 | 0.00 | 82 | 1014.6 |
| 20260903061054 | 29 | 132 | 4.8 | 12.9 | 0.00 | 0.00 | 0.00 | 81 | 1014.6 |
| 20260903060328 | 29 | 250 | 4.8 | 16.1 | 0.00 | 0.00 | 0.00 | 81 | 1014.6 |
| 20260903060100 | 29 | 259 | 4.8 | 14.5 | 0.00 | 0.00 | 0.00 | 81 | 1014.8 |
| 20260903055830 | 29 | 98 | 6.4 | 16.1 | 0.00 | 0.00 | 0.00 | 81 | 1014.6 |
| 20260903055330 | 29 | 112 | 4.8 | 12.9 | 0.00 | 0.00 | 0.00 | 81 | 1014.7 |
| 20260903055101 | 29 | 103 | 3.2 | 16.1 | 0.00 | 0.00 | 0.00 | 81 | 1014.7 |
| 20260903054602 | 29 | 149 | 6.4 | 16.1 | 0.00 | 0.00 | 0.00 | 80 | 1014.9 |
| 20260903054329 | 29 | 53 | 6.4 | 16.1 | 0.00 | 0.00 | 0.00 | 81 | 1014.7 |
| 20260903053829 | 29 | 172 | 1.6 | 14.5 | 0.00 | 0.00 | 0.00 | 80 | 1014.7 |
| 20260903053329 | 29 | 85 | 6.4 | 14.5 | 0.00 | 0.00 | 0.00 | 80 | 1014.7 |
| 20260903053101 | 29 | 342 | 4.8 | 16.1 | 0.00 | 0.00 | 0.00 | 80 | 1014.9 |
| 20260903052830 | 29 | 184 | 4.8 | 11.3 | 0.00 | 0.00 | 0.00 | 80 | 1014.6 |
| 20260903052555 | 29 | 168 | 4.8 | 11.3 | 0.00 | 0.00 | 0.00 | 81 | 1014.6 |
| 20260903051830 | 29 | 271 | 4.8 | 12.9 | 0.00 | 0.00 | 0.00 | 81 | 1014.7 |
| 20260903051603 | 29 | 314 | 4.8 | 12.9 | 0.00 | 0.00 | 0.00 | 80 | 1014.9 |
| 20260903051330 | 29 | 160 | 3.2 | 14.5 | 0.00 | 0.00 | 0.00 | 81 | 1014.7 |
| 20260903050830 | 29 | 284 | 3.2 | 16.1 | 0.00 | 0.00 | 0.00 | 80 | 1014.7 |
| 20260903050552 | 30 | 146 | 4.8 | 16.1 | 0.00 | 0.00 | 0.00 | 80 | 1014.7 |
| 20260903050111 | 29 | 156 | 4.8 | 22.5 | 0.00 | 0.00 | 0.00 | 80 | 1014.9 |
| 20260903045829 | 30 | 321 | 4.8 | 16.1 | 0.00 | 0.00 | 0.00 | 80 | 1014.8 |
| 20260903045329 | 30 | 240 | 4.8 | 16.1 | 0.00 | 0.00 | 0.00 | 80 | 1014.7 |
| 20260903044829 | 30 | 63 | 3.2 | 14.5 | 0.00 | 0.00 | 0.00 | 80 | 1014.9 |
| 20260903044605 | 29 | 301 | 4.8 | 16.1 | 0.00 | 0.00 | 0.00 | 79 | 1015.0 |
| 20260903044329 | 30 | 242 | 8.0 | 14.5 | 0.00 | 0.00 | 0.00 | 80 | 1014.8 |
| 20260903043829 | 30 | 261 | 4.8 | 20.9 | 0.00 | 0.00 | 0.00 | 79 | 1014.9 |
| 20260903043551 | 30 | 330 | 4.8 | 20.9 | 0.00 | 0.00 | 0.00 | 79 | 1014.9 |
| 20260903043103 | 29 | 274 | 6.4 | 20.9 | 0.00 | 0.00 | 0.00 | 78 | 1015.2 |
| 20260903042829 | 30 | 342 | 6.4 | 12.9 | 0.00 | 0.00 | 0.00 | 79 | 1015.1 |
| 20260903042329 | 30 | 90 | 3.2 | 16.1 | 0.00 | 0.00 | 0.00 | 78 | 1015.1 |
| 20260903041829 | 30 | 293 | 8.0 | 16.1 | 0.00 | 0.00 | 0.00 | 78 | 1015.0 |
| 20260903041611 | 30 | 145 | 4.8 | 20.9 | 0.00 | 0.00 | 0.00 | 77 | 1015.3 |
| 20260903041328 | 30 | 124 | 6.4 | 14.5 | 0.00 | 0.00 | 0.00 | 77 | 1015.0 |
| 20260903040828 | 30 | 345 | 4.8 | 16.1 | 0.00 | 0.00 | 0.00 | 77 | 1015.0 |
| 20260903040329 | 30 | 238 | 6.4 | 17.7 | 0.00 | 0.00 | 0.00 | 77 | 1015.0 |
| 20260903040109 | 30 | 64 | 9.7 | 17.7 | 0.00 | 0.00 | 0.00 | 77 | 1015.2 |
| 20260903040106 | 30 | 187 | 9.7 | 17.7 | 0.00 | 0.00 | 0.00 | 77 | 1015.0 |
| 20260903035332 | 30 | 60 | 4.8 | 12.9 | 0.00 | 0.00 | 0.00 | 77 | 1015.0 |
| 20260903034844 | 30 | 165 | 6.4 | 16.1 | 0.00 | 0.00 | 0.00 | 77 | 1014.9 |
| 20260903034600 | 30 | 249 | 8.0 | 19.3 | 0.00 | 0.00 | 0.00 | 77 | 1015.0 |
| 20260903034330 | 30 | 52 | 8.0 | 17.7 | 0.00 | 0.00 | 0.00 | 77 | 1014.9 |
| 20260903033830 | 30 | 237 | 6.4 | 20.9 | 0.00 | 0.00 | 0.00 | 76 | 1014.9 |
| 20260903033329 | 30 | 43 | 4.8 | 20.9 | 0.00 | 0.00 | 0.00 | 76 | 1014.9 |
| 20260903033101 | 30 | 40 | 8.0 | 19.3 | 0.00 | 0.00 | 0.00 | 76 | 1015.0 |
| 20260903032829 | 30 | 115 | 9.7 | 20.9 | 0.00 | 0.00 | 0.00 | 76 | 1014.8 |
| 20260903032329 | 30 | 349 | 6.4 | 20.9 | 0.00 | 0.00 | 0.00 | 76 | 1014.7 |
| 20260903031829 | 30 | 129 | 6.4 | 17.7 | 0.00 | 0.00 | 0.00 | 76 | 1014.5 |
| 20260903031556 | 30 | 255 | 6.4 | 17.7 | 0.00 | 0.00 | 0.00 | 75 | 1014.9 |
| 20260903031329 | 30 | 269 | 3.2 | 14.5 | 0.00 | 0.00 | 0.00 | 76 | 1014.5 |
| 20260903031051 | 30 | 160 | 6.4 | 14.5 | 0.00 | 0.00 | 0.00 | 76 | 1014.6 |
| 20260903030328 | 30 | 208 | 6.4 | 11.3 | 0.00 | 0.00 | 0.00 | 76 | 1014.3 |
| 20260903025831 | 30 | 284 | 4.8 | 17.7 | 0.00 | 0.00 | 0.00 | 75 | 1014.2 |
| 20260903025811 | 30 | 96 | 8.0 | 20.9 | 0.00 | 0.00 | 0.00 | 75 | 1014.2 |
| 20260903024830 | 30 | 308 | 8.0 | 20.9 | 0.00 | 0.00 | 0.00 | 75 | 1014.1 |
| 20260903024604 | 30 | 35 | 4.8 | 17.7 | 0.00 | 0.00 | 0.00 | 74 | 1014.1 |
| 20260903024343 | 30 | 195 | 8.0 | 16.1 | 0.00 | 0.00 | 0.00 | 75 | 1014.1 |
| 20260903023841 | 31 | 339 | 8.0 | 16.1 | 0.00 | 0.00 | 0.00 | 75 | 1013.9 |
| 20260903023337 | 31 | 290 | 9.7 | 16.1 | 0.00 | 0.00 | 0.00 | 75 | 1013.7 |
| 20260903023057 | 30 | 263 | 8.0 | 19.3 | 0.00 | 0.00 | 0.00 | 74 | 1014.0 |
| 20260903022831 | 31 | 86 | 8.0 | 17.7 | 0.00 | 0.00 | 0.00 | 75 | 1013.7 |
| 20260903022331 | 31 | 309 | 9.7 | 17.7 | 0.00 | 0.00 | 0.00 | 74 | 1013.6 |
| 20260903021830 | 31 | 332 | 8.0 | 16.1 | 0.00 | 0.00 | 0.00 | 74 | 1013.6 |
| 20260903021555 | 31 | 306 | 6.4 | 17.7 | 0.00 | 0.00 | 0.00 | 73 | 1013.7 |
| 20260903021330 | 31 | 136 | 8.0 | 16.1 | 0.00 | 0.00 | 0.00 | 73 | 1013.4 |
| 20260903021105 | 31 | 75 | 6.4 | 17.7 | 0.00 | 0.00 | 0.00 | 73 | 1013.3 |
| 20260903020606 | 31 | 321 | 6.4 | 17.7 | 0.00 | 0.00 | 0.00 | 72 | 1013.2 |
| 20260903020117 | 31 | 257 | 6.4 | 20.9 | 0.00 | 0.00 | 0.00 | 71 | 1013.1 |
| 20260903020058 | 31 | 295 | 9.7 | 19.3 | 0.00 | 0.00 | 0.00 | 71 | 1013.3 |
| 20260903015552 | 31 | 359 | 9.7 | 20.9 | 0.00 | 0.00 | 0.00 | 70 | 1012.9 |
| 20260903015317 | 31 | 76 | 6.4 | 20.9 | 0.00 | 0.00 | 0.00 | 70 | 1012.9 |
| 20260903014613 | 31 | 337 | 6.4 | 20.9 | 0.00 | 0.00 | 0.00 | 68 | 1013.1 |
| 20260903014329 | 32 | 39 | 4.8 | 20.9 | 0.00 | 0.00 | 0.00 | 68 | 1012.8 |
| 20260903013828 | 32 | 152 | 9.7 | 16.1 | 0.00 | 0.00 | 0.00 | 67 | 1012.9 |
| 20260903013329 | 32 | 316 | 8.0 | 19.3 | 0.00 | 0.00 | 0.00 | 66 | 1012.8 |
| 20260903013107 | 32 | 248 | 8.0 | 20.9 | 0.00 | 0.00 | 0.00 | 65 | 1013.0 |
| 20260903012814 | 32 | 129 | 9.7 | 19.3 | 0.00 | 0.00 | 0.00 | 65 | 1012.7 |
| 20260903012551 | 32 | 221 | 9.7 | 17.7 | 0.00 | 0.00 | 0.00 | 64 | 1012.6 |
| 20260903011809 | 33 | 181 | 6.4 | 16.1 | 0.00 | 0.00 | 0.00 | 62 | 1012.5 |
| 20260903011622 | 32 | 37 | 8.0 | 17.7 | 0.00 | 0.00 | 0.00 | 61 | 1012.5 |
| 20260903011306 | 33 | 185 | 8.0 | 17.7 | 0.00 | 0.00 | 0.00 | 61 | 1012.4 |
| 20260903010806 | 33 | 65 | 6.4 | 17.7 | 0.00 | 0.00 | 0.00 | 60 | 1012.3 |
| 20260903010301 | 33 | 167 | 8.0 | 14.5 | 0.00 | 0.00 | 0.00 | 58 | 1012.2 |
| 20260903010108 | 33 | 47 | 6.4 | 17.7 | 0.00 | 0.00 | 0.00 | 57 | 1012.3 |
| 20260903005802 | 33 | 315 | 4.8 | 16.1 | 0.00 | 0.00 | 0.00 | 57 | 1012.1 |
| 20260903005259 | 33 | 232 | 8.0 | 16.1 | 0.00 | 0.00 | 0.00 | 57 | 1012.1 |
| 20260903004753 | 34 | 162 | 6.4 | 14.5 | 0.00 | 0.00 | 0.00 | 56 | 1012.0 |
| 20260903004608 | 33 | 184 | 8.0 | 16.1 | 0.00 | 0.00 | 0.00 | 56 | 1012.2 |
| 20260903004249 | 34 | 242 | 6.4 | 14.5 | 0.00 | 0.00 | 0.00 | 56 | 1012.0 |
| 20260903003744 | 35 | 21 | 4.8 | 14.5 | 0.00 | 0.00 | 0.00 | 54 | 1011.9 |
| 20260903003238 | 35 | 259 | 6.4 | 17.7 | 0.00 | 0.00 | 0.00 | 53 | 1011.9 |
| 20260903003125 | 35 | 285 | 4.8 | 16.1 | 0.00 | 0.00 | 0.00 | 51 | 1012.2 |
| 20260903002954 | 35 | 160 | 6.4 | 17.7 | 0.00 | 0.00 | 0.00 | 50 | 1011.7 |
| 20260903002229 | 35 | 23 | 6.4 | 14.5 | 0.00 | 0.00 | 0.00 | 48 | 1011.7 |
| 20260903001951 | 35 | 252 | 6.4 | 20.9 | 0.00 | 0.00 | 0.00 | 49 | 1011.8 |
| 20260903001603 | 35 | 65 | 6.4 | 20.9 | 0.00 | 0.00 | 0.00 | 49 | 1011.9 |
| 20260903001229 | 35 | 134 | 9.7 | 20.9 | 0.00 | 0.00 | 0.00 | 49 | 1011.7 |
| 20260903000729 | 35 | 42 | 9.7 | 16.1 | 0.00 | 0.00 | 0.00 | 49 | 1011.6 |
| 20260903000229 | 36 | 225 | 8.0 | 22.5 | 0.00 | 0.00 | 0.00 | 49 | 1011.8 |
| 20260903000054 | 36 | 75 | 4.8 | 20.9 | 0.00 | 0.00 | 0.00 | 48 | 1011.9 |
| 20260902235728 | 36 | 202 | 4.8 | 22.5 | 0.00 | 0.00 | 0.00 | 49 | 1011.6 |
| 20260902235229 | 36 | 158 | 6.4 | 17.7 | 0.00 | 0.00 | 0.00 | 48 | 1011.7 |
| 20260902234730 | 36 | 195 | 6.4 | 14.5 | 0.00 | 0.00 | 0.00 | 44 | 1011.6 |
| 20260902234554 | 36 | 302 | 6.4 | 14.5 | 0.00 | 0.00 | 0.00 | 43 | 1011.8 |
| 20260902234229 | 37 | 338 | 4.8 | 12.9 | 0.00 | 0.00 | 0.00 | 42 | 1011.4 |
| 20260902233957 | 37 | 110 | 4.8 | 16.1 | 0.00 | 0.00 | 0.00 | 40 | 1011.6 |
| 20260902233228 | 37 | 289 | 8.0 | 17.7 | 0.00 | 0.00 | 0.00 | 40 | 1011.6 |
| 20260902233104 | 37 | 1 | 6.4 | 17.7 | 0.00 | 0.00 | 0.00 | 39 | 1011.8 |
| 20260902232729 | 37 | 131 | 6.4 | 17.7 | 0.00 | 0.00 | 0.00 | 40 | 1011.4 |
| 20260902232229 | 37 | 148 | 6.4 | 14.5 | 0.00 | 0.00 | 0.00 | 40 | 1011.6 |
| 20260902231729 | 37 | 184 | 6.4 | 14.5 | 0.00 | 0.00 | 0.00 | 39 | 1011.4 |
| 20260902231603 | 37 | 144 | 6.4 | 17.7 | 0.00 | 0.00 | 0.00 | 39 | 1011.7 |
| 20260902231454 | 38 | 204 | 6.4 | 14.5 | 0.00 | 0.00 | 0.00 | 39 | 1011.4 |
| 20260902230729 | 38 | 90 | 8.0 | 12.9 | 0.00 | 0.00 | 0.00 | 39 | 1011.6 |
| 20260902230229 | 38 | 221 | 6.4 | 14.5 | 0.00 | 0.00 | 0.00 | 40 | 1011.6 |
| 20260902230059 | 38 | 79 | 6.4 | 17.7 | 0.00 | 0.00 | 0.00 | 39 | 1011.7 |
| 20260902225950 | 38 | 350 | 6.4 | 14.5 | 0.00 | 0.00 | 0.00 | 40 | 1011.6 |
| 20260902225231 | 38 | 340 | 6.4 | 19.3 | 0.00 | 0.00 | 0.00 | 40 | 1011.6 |
| 20260902224731 | 38 | 15 | 8.0 | 19.3 | 0.00 | 0.00 | 0.00 | 40 | 1011.6 |
| 20260902224625 | 38 | 277 | 4.8 | 16.1 | 0.00 | 0.00 | 0.00 | 40 | 1011.8 |
| 20260902224230 | 38 | 4 | 4.8 | 16.1 | 0.00 | 0.00 | 0.00 | 41 | 1011.7 |
| 20260902223731 | 38 | 240 | 6.4 | 14.5 | 0.00 | 0.00 | 0.00 | 41 | 1011.6 |
| 20260902223238 | 38 | 200 | 4.8 | 14.5 | 0.00 | 0.00 | 0.00 | 41 | 1011.6 |
| 20260902223100 | 38 | 115 | 4.8 | 16.1 | 0.00 | 0.00 | 0.00 | 42 | 1011.8 |
| 20260902222729 | 38 | 351 | 6.4 | 17.7 | 0.00 | 0.00 | 0.00 | 42 | 1011.4 |
| 20260902222230 | 38 | 20 | 8.0 | 17.7 | 0.00 | 0.00 | 0.00 | 42 | 1011.4 |
| 20260902221958 | 39 | 295 | 4.8 | 12.9 | 0.00 | 0.00 | 0.00 | 43 | 1011.4 |
| 20260902221557 | 38 | 319 | 3.2 | 17.7 | 0.00 | 0.00 | 0.00 | 42 | 1011.7 |
| 20260902221229 | 38 | 219 | 8.0 | 17.7 | 0.00 | 0.00 | 0.00 | 42 | 1011.6 |
| 20260902220728 | 38 | 138 | 6.4 | 17.7 | 0.00 | 0.00 | 0.00 | 43 | 1011.4 |
| 20260902220229 | 38 | 236 | 8.0 | 16.1 | 0.00 | 0.00 | 0.00 | 42 | 1011.4 |
| 20260902220101 | 38 | 186 | 4.8 | 16.1 | 0.00 | 0.00 | 0.00 | 41 | 1011.7 |
| 20260902220016 | 38 | 117 | 6.4 | 14.5 | 0.00 | 0.00 | 0.00 | 42 | 1011.4 |
| 20260902215229 | 38 | 12 | 8.0 | 16.1 | 0.00 | 0.00 | 0.00 | 43 | 1011.6 |
| 20260902214952 | 38 | 302 | 6.4 | 16.1 | 0.00 | 0.00 | 0.00 | 43 | 1011.6 |
| 20260902214556 | 38 | 248 | 6.4 | 16.1 | 0.00 | 0.00 | 0.00 | 42 | 1011.7 |
| 20260902214229 | 38 | 216 | 8.0 | 14.5 | 0.00 | 0.00 | 0.00 | 44 | 1011.6 |
| 20260902213729 | 39 | 209 | 8.0 | 14.5 | 0.00 | 0.00 | 0.00 | 43 | 1011.6 |
| 20260902213229 | 38 | 252 | 6.4 | 14.5 | 0.00 | 0.00 | 0.00 | 45 | 1011.6 |
| 20260902213106 | 38 | 321 | 6.4 | 16.1 | 0.00 | 0.00 | 0.00 | 44 | 1011.9 |
| 20260902212954 | 38 | 239 | 9.7 | 14.5 | 0.00 | 0.00 | 0.00 | 46 | 1011.8 |
| 20260902212448 | 38 | 73 | 6.4 | 14.5 | 0.00 | 0.00 | 0.00 | 44 | 1011.6 |
| 20260902211721 | 38 | 46 | 6.4 | 14.5 | 0.00 | 0.00 | 0.00 | 45 | 1011.8 |
| 20260902211558 | 38 | 120 | 4.8 | 12.9 | 0.00 | 0.00 | 0.00 | 44 | 1012.0 |
| 20260902211216 | 38 | 91 | 3.2 | 12.9 | 0.00 | 0.00 | 0.00 | 44 | 1011.8 |
| 20260902210951 | 38 | 311 | 4.8 | 9.7 | 0.00 | 0.00 | 0.00 | 44 | 1011.9 |
| 20260902210209 | 39 | 311 | 4.8 | 12.9 | 0.00 | 0.00 | 0.00 | 43 | 1011.9 |
| 20260902210108 | 38 | 205 | 3.2 | 12.9 | 0.00 | 0.00 | 0.00 | 42 | 1012.2 |
| 20260902205707 | 39 | 91 | 4.8 | 12.9 | 0.00 | 0.00 | 0.00 | 42 | 1012.0 |
| 20260902205429 | 39 | 221 | 4.8 | 11.3 | 0.00 | 0.00 | 0.00 | 41 | 1012.1 |
| 20260902204703 | 40 | 272 | 6.4 | 11.3 | 0.00 | 0.00 | 0.00 | 43 | 1012.1 |
| 20260902204554 | 39 | 126 | 4.8 | 14.5 | 0.00 | 0.00 | 0.00 | 42 | 1012.3 |
| 20260902204203 | 40 | 244 | 6.4 | 14.5 | 0.00 | 0.00 | 0.00 | 40 | 1012.2 |
| 20260902203701 | 40 | 111 | 8.0 | 14.5 | 0.00 | 0.00 | 0.00 | 40 | 1012.2 |
| 20260902203425 | 40 | 311 | 6.4 | 14.5 | 0.00 | 0.00 | 0.00 | 39 | 1012.2 |
| 20260902203052 | 40 | 290 | 4.8 | 11.3 | 0.00 | 0.00 | 0.00 | 39 | 1012.4 |
| 20260902202701 | 40 | 326 | 4.8 | 9.7 | 0.00 | 0.00 | 0.00 | 39 | 1012.4 |
| 20260902202200 | 40 | 222 | 4.8 | 11.3 | 0.00 | 0.00 | 0.00 | 39 | 1012.5 |
| 20260902201703 | 40 | 65 | 4.8 | 11.3 | 0.00 | 0.00 | 0.00 | 39 | 1012.5 |
| 20260902201602 | 39 | 65 | 3.2 | 11.3 | 0.00 | 0.00 | 0.00 | 39 | 1012.8 |
| 20260902201201 | 40 | 245 | 3.2 | 11.3 | 0.00 | 0.00 | 0.00 | 40 | 1012.6 |
| 20260902200922 | 40 | 230 | 4.8 | 11.3 | 0.00 | 0.00 | 0.00 | 39 | 1012.8 |
| 20260902200201 | 39 | 130 | 3.2 | 11.3 | 0.00 | 0.00 | 0.00 | 39 | 1012.8 |
| 20260902200056 | 39 | 94 | 3.2 | 11.3 | 0.00 | 0.00 | 0.00 | 40 | 1013.0 |
| 20260902195701 | 39 | 245 | 6.4 | 12.9 | 0.00 | 0.00 | 0.00 | 40 | 1013.0 |
| 20260902195200 | 39 | 13 | 3.2 | 12.9 | 0.00 | 0.00 | 0.00 | 40 | 1013.1 |
| 20260902195148 | 39 | 103 | 4.8 | 14.5 | 0.00 | 0.00 | 0.00 | 41 | 1013.2 |
| 20260902194556 | 38 | 101 | 4.8 | 12.9 | 0.00 | 0.00 | 0.00 | 40 | 1013.5 |
| 20260902194203 | 39 | 162 | 6.4 | 14.5 | 0.00 | 0.00 | 0.00 | 38 | 1013.4 |
| 20260902193703 | 39 | 233 | 4.8 | 14.5 | 0.00 | 0.00 | 0.00 | 41 | 1013.4 |
| 20260902193202 | 39 | 211 | 4.8 | 9.7 | 0.00 | 0.00 | 0.00 | 41 | 1013.4 |
| 20260902193100 | 38 | 190 | 3.2 | 12.9 | 0.00 | 0.00 | 0.00 | 40 | 1013.6 |
| 20260902192702 | 39 | 0 | 4.8 | 11.3 | 0.00 | 0.00 | 0.00 | 44 | 1013.4 |
| 20260902192202 | 38 | 250 | 6.4 | 12.9 | 0.00 | 0.00 | 0.00 | 43 | 1013.7 |
| 20260902191701 | 38 | 110 | 6.4 | 12.9 | 0.00 | 0.00 | 0.00 | 42 | 1013.6 |
| 20260902191606 | 38 | 105 | 6.4 | 12.9 | 0.00 | 0.00 | 0.00 | 42 | 1013.8 |
| 20260902191423 | 38 | 347 | 6.4 | 12.9 | 0.00 | 0.00 | 0.00 | 43 | 1013.8 |
| 20260902190701 | 38 | 325 | 3.2 | 11.3 | 0.00 | 0.00 | 0.00 | 45 | 1013.9 |
| 20260902190201 | 38 | 261 | 4.8 | 14.5 | 0.00 | 0.00 | 0.00 | 44 | 1014.0 |
| 20260902190056 | 38 | 304 | 4.8 | 14.5 | 0.00 | 0.00 | 0.00 | 44 | 1014.2 |
| 20260902185701 | 38 | 6 | 8.0 | 17.7 | 0.00 | 0.00 | 0.00 | 46 | 1014.0 |
| 20260902185200 | 38 | 295 | 4.8 | 20.9 | 0.00 | 0.00 | 0.00 | 44 | 1014.1 |
| 20260902184703 | 38 | 344 | 8.0 | 20.9 | 0.00 | 0.00 | 0.00 | 45 | 1014.2 |
| 20260902184603 | 38 | 210 | 4.8 | 14.5 | 0.00 | 0.00 | 0.00 | 44 | 1014.4 |
| 20260902184203 | 38 | 198 | 4.8 | 11.3 | 0.00 | 0.00 | 0.00 | 46 | 1014.2 |
| 20260902183733 | 38 | 167 | 4.8 | 17.7 | 0.00 | 0.00 | 0.00 | 46 | 1014.4 |
| 20260902183202 | 38 | 255 | 8.0 | 17.7 | 0.00 | 0.00 | 0.00 | 47 | 1014.5 |
| 20260902183103 | 37 | 185 | 3.2 | 12.9 | 0.00 | 0.00 | 0.00 | 47 | 1014.6 |
| 20260902182702 | 38 | 20 | 4.8 | 11.3 | 0.00 | 0.00 | 0.00 | 47 | 1014.5 |
| 20260902182208 | 38 | 200 | 4.8 | 11.3 | 0.00 | 0.00 | 0.00 | 48 | 1014.5 |
| 20260902181703 | 37 | 320 | 4.8 | 22.5 | 0.00 | 0.00 | 0.00 | 48 | 1014.5 |
| 20260902181557 | 37 | 17 | 3.2 | 20.9 | 0.00 | 0.00 | 0.00 | 46 | 1014.9 |
| 20260902181203 | 37 | 119 | 9.7 | 22.5 | 0.00 | 0.00 | 0.00 | 47 | 1014.8 |
| 20260902180702 | 37 | 316 | 4.8 | 14.5 | 0.00 | 0.00 | 0.00 | 49 | 1014.8 |
| 20260902180206 | 37 | 302 | 6.4 | 14.5 | 0.00 | 0.00 | 0.00 | 50 | 1015.0 |
| 20260902180126 | 37 | 240 | 3.2 | 17.7 | 0.00 | 0.00 | 0.00 | 49 | 1015.3 |
| 20260902175701 | 37 | 34 | 3.2 | 19.3 | 0.00 | 0.00 | 0.00 | 49 | 1015.1 |
| 20260902175201 | 37 | 40 | 8.0 | 19.3 | 0.00 | 0.00 | 0.00 | 50 | 1015.2 |
| 20260902174702 | 36 | 27 | 3.2 | 11.3 | 0.00 | 0.00 | 0.00 | 54 | 1015.3 |
| 20260902174648 | 36 | 174 | 4.8 | 11.3 | 0.00 | 0.00 | 0.00 | 51 | 1015.5 |
| 20260902174201 | 36 | 205 | 4.8 | 16.1 | 0.00 | 0.00 | 0.00 | 53 | 1015.5 |
| 20260902173925 | 36 | 2 | 6.4 | 16.1 | 0.00 | 0.00 | 0.00 | 51 | 1015.5 |
| 20260902173200 | 36 | 143 | 6.4 | 12.9 | 0.00 | 0.00 | 0.00 | 52 | 1015.5 |
| 20260902173057 | 36 | 291 | 3.2 | 12.9 | 0.00 | 0.00 | 0.00 | 52 | 1015.8 |
| 20260902172701 | 36 | 122 | 6.4 | 12.9 | 0.00 | 0.00 | 0.00 | 53 | 1015.6 |
| 20260902172200 | 36 | 105 | 6.4 | 20.9 | 0.00 | 0.00 | 0.00 | 54 | 1015.7 |
| 20260902171923 | 36 | 50 | 8.0 | 20.9 | 0.00 | 0.00 | 0.00 | 53 | 1015.8 |
| 20260902171609 | 36 | 56 | 3.2 | 16.1 | 0.00 | 0.00 | 0.00 | 52 | 1015.9 |
| 20260902171201 | 36 | 319 | 6.4 | 14.5 | 0.00 | 0.00 | 0.00 | 54 | 1015.8 |
| 20260902170701 | 36 | 297 | 6.4 | 12.9 | 0.00 | 0.00 | 0.00 | 54 | 1015.8 |
| 20260902170424 | 36 | 146 | 3.2 | 12.9 | 0.00 | 0.00 | 0.00 | 54 | 1016.0 |
| 20260902170054 | 35 | 128 | 4.8 | 17.7 | 0.00 | 0.00 | 0.00 | 55 | 1016.1 |
| 20260902165700 | 35 | 250 | 3.2 | 17.7 | 0.00 | 0.00 | 0.00 | 54 | 1015.9 |
| 20260902165201 | 35 | 229 | 9.7 | 17.7 | 0.00 | 0.00 | 0.00 | 56 | 1015.9 |
| 20260902164700 | 35 | 205 | 4.8 | 9.7 | 0.00 | 0.00 | 0.00 | 57 | 1016.1 |
| 20260902164559 | 35 | 148 | 3.2 | 9.7 | 0.00 | 0.00 | 0.00 | 56 | 1016.4 |
| 20260902164201 | 35 | 20 | 4.8 | 9.7 | 0.00 | 0.00 | 0.00 | 58 | 1016.2 |
| 20260902163701 | 35 | 307 | 3.2 | 11.3 | 0.00 | 0.00 | 0.00 | 58 | 1016.2 |
| 20260902163201 | 35 | 65 | 4.8 | 12.9 | 0.00 | 0.00 | 0.00 | 60 | 1016.4 |
| 20260902163104 | 34 | 311 | 6.4 | 12.9 | 0.00 | 0.00 | 0.00 | 58 | 1016.5 |
| 20260902162700 | 35 | 278 | 4.8 | 12.9 | 0.00 | 0.00 | 0.00 | 60 | 1016.3 |
| 20260902162201 | 34 | 236 | 3.2 | 16.1 | 0.00 | 0.00 | 0.00 | 61 | 1016.3 |
| 20260902161702 | 34 | 287 | 6.4 | 16.1 | 0.00 | 0.00 | 0.00 | 61 | 1016.4 |
| 20260902161605 | 33 | 204 | 3.2 | 14.5 | 0.00 | 0.00 | 0.00 | 61 | 1016.6 |
| 20260902161201 | 34 | 352 | 4.8 | 14.5 | 0.00 | 0.00 | 0.00 | 62 | 1016.4 |
| 20260902160925 | 33 | 186 | 6.4 | 14.5 | 0.00 | 0.00 | 0.00 | 62 | 1016.2 |
| 20260902160223 | 33 | 277 | 4.8 | 12.9 | 0.00 | 0.00 | 0.00 | 63 | 1016.5 |
| 20260902160201 | 33 | 250 | 3.2 | 14.5 | 0.00 | 0.00 | 0.00 | 63 | 1016.3 |
| 20260902155931 | 33 | 281 | 4.8 | 12.9 | 0.00 | 0.00 | 0.00 | 63 | 1016.4 |
| 20260902155202 | 33 | 87 | 4.8 | 12.9 | 0.00 | 0.00 | 0.00 | 65 | 1016.4 |
| 20260902154700 | 33 | 143 | 6.4 | 12.9 | 0.00 | 0.00 | 0.00 | 65 | 1016.5 |
| 20260902154629 | 32 | 340 | 3.2 | 14.5 | 0.00 | 0.00 | 0.00 | 65 | 1016.7 |
| 20260902154201 | 32 | 97 | 4.8 | 12.9 | 0.00 | 0.00 | 0.00 | 67 | 1016.5 |
| 20260902153653 | 32 | 236 | 6.4 | 12.9 | 0.00 | 0.00 | 0.00 | 67 | 1016.5 |
| 20260902153152 | 32 | 166 | 8.0 | 12.9 | 0.00 | 0.00 | 0.00 | 67 | 1016.4 |
| 20260902153141 | 32 | 119 | 6.4 | 14.5 | 0.00 | 0.00 | 0.00 | 67 | 1016.6 |
| 20260902153105 | 32 | 119 | 6.4 | 14.5 | 0.00 | 0.00 | 0.00 | 67 | 1016.6 |
| 20260902152651 | 32 | 122 | 4.8 | 12.9 | 0.00 | 0.00 | 0.00 | 69 | 1016.3 |
| 20260902152135 | 32 | 302 | 4.8 | 12.9 | 0.00 | 0.00 | 0.00 | 70 | 1016.3 |
| 20260902151629 | 32 | 262 | 4.8 | 12.9 | 0.00 | 0.00 | 0.00 | 71 | 1016.2 |
| 20260902151611 | 31 | 264 | 4.8 | 16.1 | 0.00 | 0.00 | 0.00 | 71 | 1016.5 |
| 20260902151129 | 31 | 234 | 6.4 | 12.9 | 0.00 | 0.00 | 0.00 | 72 | 1016.1 |
| 20260902150629 | 31 | 67 | 4.8 | 14.5 | 0.00 | 0.00 | 0.00 | 73 | 1016.1 |
| 20260902150129 | 31 | 288 | 6.4 | 14.5 | 0.00 | 0.00 | 0.00 | 74 | 1016.2 |
| 20260902145629 | 31 | 290 | 8.0 | 14.5 | 0.00 | 0.00 | 0.00 | 74 | 1016.3 |
| 20260902145347 | 31 | 135 | 8.0 | 14.5 | 0.00 | 0.00 | 0.00 | 75 | 1016.3 |
| 20260902144628 | 30 | 260 | 6.4 | 11.3 | 0.00 | 0.00 | 0.00 | 76 | 1016.2 |
| 20260902144555 | 30 | 161 | 3.2 | 14.5 | 0.00 | 0.00 | 0.00 | 75 | 1016.5 |
| 20260902144129 | 30 | 34 | 6.4 | 14.5 | 0.00 | 0.00 | 0.00 | 78 | 1016.2 |
| 20260902143857 | 30 | 305 | 8.0 | 14.5 | 0.00 | 0.00 | 0.00 | 77 | 1016.3 |
| 20260902143129 | 30 | 300 | 4.8 | 11.3 | 0.00 | 0.00 | 0.00 | 79 | 1016.2 |
| 20260902143055 | 30 | 338 | 3.2 | 12.9 | 0.00 | 0.00 | 0.00 | 78 | 1016.5 |
| 20260902142628 | 30 | 328 | 6.4 | 11.3 | 0.00 | 0.00 | 0.00 | 79 | 1016.3 |
| 20260902142127 | 30 | 162 | 4.8 | 9.7 | 0.00 | 0.00 | 0.00 | 80 | 1016.2 |
| 20260902141932 | 29 | 49 | 4.8 | 14.5 | 0.00 | 0.00 | 0.00 | 81 | 1016.5 |
| 20260902141601 | 29 | 161 | 4.8 | 14.5 | 0.00 | 0.00 | 0.00 | 82 | 1016.2 |
| 20260902141321 | 29 | 247 | 4.8 | 11.3 | 0.00 | 0.00 | 0.00 | 82 | 1016.2 |
| 20260902140601 | 28 | 200 | 4.8 | 12.9 | 0.00 | 0.00 | 0.00 | 83 | 1016.3 |
| 20260902140107 | 28 | 1 | 6.4 | 12.9 | 0.00 | 0.00 | 0.00 | 83 | 1016.2 |